SCP
0 0 0 0 0 0 0 0 0 0 0 0 0 0 0 0 0 0 0 0 0 0 0 0 0 0 0 0 0 0 0 0 0 0 0 0 0 0 0 0 0 0 0 0
0 0 0 0 0 0 0 0 0 0 0 0 0 0 0 0 0 0 0 0 0 0 0 0 0 0 0 0 0 0 0 0 0 0 0 0 0 0 0 0 0 0 0 0
0 0 0 0 0 0 0 0 0 0 0 0 0 0 0 0 0 0 0 0 0 0 0 0 0 0 0 0 0 0 0 0 0 0 0 0 0 0 0 0 0 0 0 0
0 0 0 0 0 0 0 0 0 0 0 0 0 0 0 0 0 0 0 0 0 0 0 0 0 0 0 0 0 0 0 0 0 0 0 0 0 0 0 0 0 0 0 -0
0 0 0 0 0 0 0 0 0 0 0 0 0 0 0 0 0 0 0 0 0 0 0 0 0 0 0 0 0 0 0 0 0 0 0 0 0 0 0 0 0 0 0 0
0 -0 0 0 0 0 0 0 0 0 0 0 0 0 0 0 0 0 0 0 0 0 0 0 0 0 0 0 0 0 0 0 0 0 0 0 0 0 0 0 0 0 0 0
0 0 0 0 0 0 0 0 0 0 0 0 0 0 0 0 0 0 0 0 0 0 0 0 0 0 0 0 0 0 0 0 0 0 0 0 0 0 0 0 0 0 0 0
0 0 0 0 0 0 0 0 0 0 0 0 0 0 0 0 0 0 0 0 0 0 0 0 0 0 0 0 0 0 0 0 0 0 0 0 0 0 0 0 0 0 0 0
-0 -0 -0 0 0 0 0 0 0 0 0 0 0 0 0 0 0 0 0 0 0 0 0 0 0 0 0 0 0 0 0 0 0 0 -0 -0 0 0 0 0 0 0 0 0
0 -0 0 0 0 0 0 0 0 0 0 0 0 0 0 0 0 0 0 0 0 0 0 0 0 0 0 0 0 0 0 0 0 0 0 -0 -0 -0 0 0 0 0 0 0
0 0 0 0 0 0 0 -0 -0 0 0 0 0 0 0 0 0 0 0 0 0 0 0 0 0 0 0 0 0 0 0 0 -0 -0 0 0 0 0 0 0 0 0 0 0
-0 -0 -0 -0 0 0 0 0 0 0 0 0 0 0 0 0 0 0 0 0 0 0 0 0 0 0 0 0 0 0 0 -0 -0 -0 -0 -0 -0 0 0 0 0 0 0 0
0 0 0 0 0 0 0 0 0 0 0 0 0 0 0 0 0 0 0 0 0 0 0 0 0 0 0 0 0 0 0 0 0 0 0 -0 -0 0 0 0 0 0 0 0
0 0 0 0 0 0 0 -0 0 0 0 0 0 0 0 0 0 0 0 0 0 0 0 0 0 0 0 0 0 0 -0 -0 -0 -0 -0 -0 -0 0 0 0 0 0 0 0
0 0 0 0 0 0 0 0 0 0 0 0 0 0 0 0 0 0 0 0 0 0 0 0 0 0 0 0 0 0 -0 -0 -0 -0 -0 -0 0 0 0 0 0 0 0 0
0 0 0 -0 -0 0 0 0 0 -0 0 0 0 0 0 0 0 0 0 0 0 0 0 0 0 -0 0 -0 -0 -0 -0 -0 -0 -0 -0 0 0 0 0 0 0 0 0 0
0 0 0 0 0 0 0 0 0 0 0 0 0 0 0 0 0 0 0 0 0 0 0 0 -0 -0 -0 -0 -0 -0 -0 -0 -0 -0 0 0 0 0 0 0 0 0 0 0
0 0 0 -0 0 0 0 -0 -0 -0 0 0 0 0 0 0 0 0 0 0 0 0 -0 -0 -0 -0 -0 -0 -0 -0 -0 -0 -0 -0 0 0 0 0 0 0 0 0 0 0
0 0 0 0 0 0 0 -0 -0 0 0 0 0 0 0 0 0 0 0 0 0 0 -0 -0 -0 0 0 -0 -0 -0 -0 -0 -0 0 0 0 0 0 0 0 0 0 0 0
0 0 0 0 0 0 0 0 0 0 0 0 0 0 0 0 0 0 0 0 0 0 0 0 0 0 0 -0 -0 -0 -0 -0 0 0 0 0 0 0 0 0 0 0 0 0
0 0 0 0 0 0 -0 0 0 0 0 0 0 0 0 0 0 0 0 0 0 0 0 0 0 0 -0 -0 -0 -0 0 0 0 0 0 0 0 0 0 0 0 0 0 0
0 0 0 0 0 0 0 0 0 0 0 0 0 0 0 0 0 0 0 0 0 0 0 0 0 0 -0 -0 -0 0 0 0 0 0 0 0 0 0 0 0 0 0 0 0
0 0 0 0 0 -0 -0 0 0 0 0 0 0 0 0 0 0 0 0 0 0 0 0 -0 -0 -0 0 0 0 0 0 0 0 0 0 0 0 0 0 0 0 0 0 0
0 0 0 -0 -0 -0 -0 -0 -0 0 0 0 0 0 0 0 0 0 0 0 -0 0 0 -0 0 0 0 0 0 0 0 0 0 0 0 0 0 0 0 0 0 0 0 0
0 0 0 0 0 -0 0 -0 -0 0 0 0 0 0 0 0 0 0 0 0 -0 0 -0 0 0 0 0 0 0 0 0 0 0 0 0 0 0 0 0 0 0 0 0 0
0 0 0 0 0 0 -0 -0 0 0 0 0 0 0 0 0 0 0 0 0 0 -0 0 0 0 0 0 0 0 0 0 0 0 0 0 0 0 0 0 0 0 0 0 0
0 0 0 0 0 0 0 0 0 0 0 0 0 0 0 0 0 0 0 0 0 0 0 0 0 0 0 0 0 0 0 0 0 0 0 0 0 0 0 0 0 0 0 0
Wind_Speed_500mb
36 31 18 18 13 16 9 12 12 10 13 14 15 15 45 63 65 67 72 82 97 100 95 83 68 54 41 34 29 21 10 27 27 21 18 12 12 7 3 5 6 13 19 13
36 27 31 18 22 18 14 11 9 17 9 16 13 26 39 53 66 70 77 89 91 95 90 82 69 59 47 40 36 24 16 28 30 22 19 17 6 8 8 8 11 15 18 11
16 30 36 18 16 15 10 11 17 9 15 16 13 15 31 58 68 77 84 84 95 98 89 77 70 61 53 43 34 25 17 21 31 30 17 16 11 13 13 13 17 20 10 5
13 23 20 8 13 17 19 13 13 14 13 20 23 36 31 57 73 65 79 87 91 93 82 72 70 61 48 41 33 23 19 22 31 25 17 14 13 16 17 16 12 6 4 1
10 12 20 22 10 10 13 13 17 23 21 12 33 26 5 45 60 89 96 94 94 90 81 75 69 58 47 38 30 25 23 30 25 22 18 19 17 16 12 11 5 0 7 14
6 8 14 11 13 31 12 2 10 20 24 29 38 10 9 49 61 75 82 85 89 84 77 74 66 54 43 36 31 27 24 27 24 23 19 18 18 10 6 6 3 9 16 23
5 10 12 16 35 14 6 8 50 28 49 65 22 21 55 62 68 76 81 84 81 78 77 69 58 47 38 33 31 26 25 25 23 19 19 9 2 5 7 1 10 19 26 22
4 5 11 16 15 7 7 48 53 55 65 55 48 51 66 71 74 77 78 75 77 75 66 58 49 42 35 32 29 31 35 25 22 25 21 11 3 1 5 10 19 21 24 20
10 9 14 19 26 27 27 50 52 37 59 90 80 87 79 79 79 78 77 77 71 65 60 52 42 35 34 35 36 36 28 24 18 15 17 13 11 12 12 14 20 20 20 22
4 10 27 49 42 39 31 42 58 27 66 84 91 90 86 85 82 78 76 74 66 60 56 52 43 35 38 36 38 37 34 29 22 15 14 15 20 16 17 19 26 34 38 36
10 18 32 28 36 31 24 29 42 29 63 94 101 91 91 85 80 75 71 64 57 49 45 38 29 34 40 38 38 41 35 32 26 21 16 11 13 19 23 27 35 42 41 43
9 14 20 29 19 27 13 12 31 25 41 72 92 95 85 79 73 68 62 55 48 39 36 33 27 22 42 40 46 36 36 33 22 16 11 13 17 20 16 27 29 28 23 17
14 42 43 44 30 22 45 39 18 41 40 68 73 76 72 75 66 58 52 47 40 36 31 26 21 39 44 52 42 39 36 24 15 17 15 17 16 18 25 23 19 20 17 6
55 46 34 39 25 13 26 37 26 44 48 54 59 61 65 66 57 50 47 39 34 32 27 18 36 45 53 46 41 35 23 18 13 13 14 13 14 22 27 9 2 5 6 6
73 67 61 31 20 16 16 29 30 47 68 67 59 61 60 61 55 49 40 33 32 30 24 30 47 54 45 41 40 27 21 24 18 16 15 10 24 23 5 6 7 7 6 5
38 50 41 40 33 11 21 30 60 57 74 65 63 58 52 49 51 46 36 36 40 35 28 54 54 42 39 38 36 26 20 19 10 9 8 15 11 4 10 16 12 6 11 13
52 32 33 36 32 39 36 44 31 48 67 63 60 58 56 53 47 40 37 32 25 26 57 51 42 38 35 34 33 32 22 16 12 4 2 9 25 8 11 11 9 10 12 9
61 47 34 27 46 66 64 67 28 56 73 69 64 57 50 48 47 43 39 36 31 51 47 39 37 35 33 27 28 26 20 12 11 7 3 23 12 5 5 11 10 8 13 11
63 40 30 27 41 69 68 58 37 69 65 60 55 49 45 43 44 43 44 45 46 43 39 36 33 29 27 23 23 27 19 12 18 9 22 24 14 5 6 7 9 11 12 14
42 37 35 26 30 44 52 37 45 68 66 63 54 50 50 45 43 47 47 47 44 40 36 36 39 32 26 16 19 24 13 7 27 31 26 16 9 8 9 7 8 8 9 10
40 32 39 33 35 35 49 35 48 65 71 57 55 56 51 47 47 50 52 51 46 41 34 32 33 29 23 21 15 10 6 28 34 33 22 10 6 8 8 7 5 4 7 11
46 54 38 49 41 22 36 54 44 55 66 58 50 48 51 50 50 53 45 45 41 32 29 30 32 30 20 18 13 28 33 25 23 16 10 6 4 7 12 4 7 8 5 6
36 37 45 52 36 27 49 50 52 59 54 53 55 54 51 51 53 60 54 42 39 38 27 27 32 31 22 17 18 27 35 25 16 8 5 5 7 9 6 11 11 8 4 8
38 41 51 57 57 60 79 105 61 57 59 57 49 44 44 52 50 48 44 41 40 34 33 39 27 27 27 29 37 32 22 12 6 6 6 9 11 13 8 9 9 3 5 13
45 38 43 62 91 87 86 92 54 61 58 48 43 42 41 47 56 55 47 40 36 44 43 30 28 23 29 33 32 22 16 9 6 7 11 9 14 14 9 5 3 6 14 21
35 40 57 58 65 79 85 81 71 74 64 56 48 46 49 51 50 48 51 42 38 37 35 40 31 37 39 34 27 20 12 7 8 12 14 15 18 14 8 0 9 17 18 16
43 41 45 55 75 85 84 76 80 78 67 62 63 59 57 56 51 44 41 37 40 44 41 42 41 41 35 28 24 18 13 12 14 15 16 13 8 2 5 10 11 13 14 17
Wind_Direction_500mb
308 269 202 205 202 167 155 162 151 198 195 217 202 165 177 179 171 172 172 179 184 187 190 189 189 190 194 199 195 194 201 179 177 185 187 189 196 191 200 254 298 314 333 333
315 314 226 201 205 177 156 141 131 142 188 187 203 122 150 177 168 173 174 182 180 186 189 189 190 189 194 196 194 199 200 189 187 192 195 205 206 198 223 231 272 284 321 297
296 326 304 239 190 187 168 178 145 152 209 162 170 152 158 176 180 175 180 177 184 191 192 191 191 193 194 194 195 200 188 199 196 196 206 203 229 224 262 244 255 279 304 271
286 321 268 268 282 178 192 184 161 125 146 156 169 167 159 185 181 184 176 180 184 190 192 193 191 192 192 194 196 197 185 170 171 186 199 219 243 236 279 250 275 289 50 86
177 265 288 306 26 357 161 228 175 157 166 122 143 137 121 179 186 193 190 191 192 192 194 189 189 191 192 192 196 190 186 182 187 194 214 218 229 257 265 188 179 316 320 316
186 150 256 240 351 358 358 255 199 147 157 151 159 136 228 170 178 179 184 188 190 190 188 186 189 192 192 193 193 185 187 185 193 204 205 207 256 230 167 159 204 297 314 317
176 237 287 347 322 325 88 244 323 222 169 164 173 189 165 169 174 180 184 185 185 183 183 186 187 190 190 191 189 181 189 190 200 215 197 190 163 156 150 137 306 309 316 327
218 228 269 3 338 335 268 322 314 287 173 172 175 161 162 170 171 176 176 175 178 176 178 182 185 190 190 187 176 179 182 192 208 199 201 214 242 236 194 294 305 313 322 315
183 218 239 249 259 272 314 324 306 295 207 181 164 160 163 165 166 169 170 171 173 175 174 175 182 192 188 175 181 185 185 192 185 172 181 204 244 227 268 284 294 302 313 321
256 254 250 276 281 279 280 326 320 271 190 170 158 161 162 163 164 166 168 169 172 175 175 174 186 196 181 185 186 192 183 181 186 196 224 243 261 252 263 292 301 306 307 305
260 295 300 308 285 273 291 315 323 219 185 169 165 164 164 162 163 167 168 168 174 179 183 188 198 184 184 187 189 179 185 185 194 210 228 243 268 283 297 316 315 312 313 308
244 281 272 289 291 272 235 346 234 189 184 168 166 166 164 161 167 168 168 169 173 179 186 192 203 204 177 175 173 185 185 178 187 203 237 281 297 306 319 317 342 342 347 337
280 301 287 277 268 267 222 209 186 168 189 162 166 163 164 162 168 169 168 171 176 178 184 189 213 181 174 166 170 172 175 187 207 244 249 277 304 320 318 339 343 338 346 15
288 292 268 266 254 247 225 235 210 186 184 176 170 166 164 162 164 171 171 169 169 177 179 192 173 169 162 166 173 174 180 186 210 222 244 285 304 321 328 324 290 61 105 2
276 279 260 263 269 275 233 196 159 188 185 168 170 170 167 163 166 171 167 169 173 174 179 169 162 159 164 174 173 176 199 212 222 245 237 290 329 333 49 141 133 137 115 65
265 298 263 248 255 260 177 152 167 181 171 166 171 171 169 165 164 164 168 173 174 174 175 157 155 164 170 177 177 191 197 191 218 246 236 310 350 155 121 147 151 105 74 101
275 249 250 241 215 173 173 160 176 181 169 171 173 171 166 162 162 164 168 166 166 169 158 155 157 165 168 177 188 188 195 213 242 277 248 353 161 133 103 148 148 126 95 83
278 287 243 252 206 181 171 200 219 195 176 172 168 166 161 167 165 168 161 154 154 155 159 155 152 165 175 186 193 200 209 236 295 268 215 170 168 130 94 140 141 100 104 76
263 254 240 243 224 204 202 203 201 188 175 170 167 165 166 166 167 167 163 159 160 167 165 156 161 169 182 199 200 204 222 284 328 171 174 177 163 141 140 147 127 95 79 67
246 240 223 201 171 171 170 161 179 188 178 173 165 161 161 163 168 167 169 169 170 169 164 158 176 183 184 195 193 204 238 316 148 149 165 175 167 157 151 146 125 106 89 55
221 196 176 163 164 159 197 204 177 181 174 172 168 165 164 165 165 168 170 170 172 171 165 173 187 191 194 175 185 216 224 151 172 171 170 177 180 166 151 137 122 103 66 38
206 191 195 189 164 92 170 181 194 181 171 168 168 164 164 163 166 170 172 172 165 163 173 194 199 198 174 164 131 144 153 155 154 158 161 162 162 162 138 124 147 121 64 29
207 206 191 175 165 154 169 162 177 175 169 171 171 170 169 164 167 170 169 173 165 169 174 176 165 175 171 142 128 149 172 170 161 163 168 119 118 134 117 99 135 95 84 4
202 163 172 175 162 170 166 163 165 180 178 173 170 170 165 163 169 172 166 167 172 175 172 156 144 153 155 161 161 157 157 153 145 147 126 113 133 144 124 117 128 124 336 339
165 152 155 162 170 170 166 175 169 179 174 167 165 170 167 168 169 171 178 166 163 159 159 164 168 176 160 161 164 159 147 136 136 141 136 142 147 151 132 114 72 341 327 330
138 151 160 166 170 173 175 174 180 176 168 162 163 168 168 171 172 169 169 168 168 178 189 177 167 153 153 163 170 178 168 153 146 143 135 125 120 123 130 60 327 330 340 347
114 133 159 166 171 172 176 175 170 165 165 160 159 164 170 174 172 165 161 164 168 163 162 157 156 156 155 161 173 174 172 158 155 146 129 120 121 99 329 348 17 23 12 6
Wind_Speed_850mb
36 31 18 18 13 16 9 12 12 10 13 14 15 15 45 63 65 67 72 82 97 100 95 83 68 54 41 34 29 21 10 27 27 21 18 12 12 7 3 5 6 13 19 13
36 27 31 18 22 18 14 11 9 17 9 16 13 26 39 53 66 70 77 89 91 95 90 82 69 59 47 40 36 24 16 28 30 22 19 17 6 8 8 8 11 15 18 11
16 30 36 18 16 15 10 11 17 9 15 16 13 15 31 58 68 77 84 84 95 98 89 77 70 61 53 43 34 25 17 21 31 30 17 16 11 13 13 13 17 20 10 5
13 23 20 8 13 17 19 13 13 14 13 20 23 36 31 57 73 65 79 87 91 93 82 72 70 61 48 41 33 23 19 22 31 25 17 14 13 16 17 16 12 6 4 1
10 12 20 22 10 10 13 13 17 23 21 12 33 26 5 45 60 89 96 94 94 90 81 75 69 58 47 38 30 25 23 30 25 22 18 19 17 16 12 11 5 0 7 14
6 8 14 11 13 31 12 2 10 20 24 29 38 10 9 49 61 75 82 85 89 84 77 74 66 54 43 36 31 27 24 27 24 23 19 18 18 10 6 6 3 9 16 23
5 10 12 16 35 14 6 8 50 28 49 65 22 21 55 62 68 76 81 84 81 78 77 69 58 47 38 33 31 26 25 25 23 19 19 9 2 5 7 1 10 19 26 22
4 5 11 16 15 7 7 48 53 55 65 55 48 51 66 71 74 77 78 75 77 75 66 58 49 42 35 32 29 31 35 25 22 25 21 11 3 1 5 10 19 21 24 20
10 9 14 19 26 27 27 50 52 37 59 90 80 87 79 79 79 78 77 77 71 65 60 52 42 35 34 35 36 36 28 24 18 15 17 13 11 12 12 14 20 20 20 22
4 10 27 49 42 39 31 42 58 27 66 84 91 90 86 85 82 78 76 74 66 60 56 52 43 35 38 36 38 37 34 29 22 15 14 15 20 16 17 19 26 34 38 36
10 18 32 28 36 31 24 29 42 29 63 94 101 91 91 85 80 75 71 64 57 49 45 38 29 34 40 38 38 41 35 32 26 21 16 11 13 19 23 27 35 42 41 43
9 14 20 29 19 27 13 12 31 25 41 72 92 95 85 79 73 68 62 55 48 39 36 33 27 22 42 40 46 36 36 33 22 16 11 13 17 20 16 27 29 28 23 17
14 42 43 44 30 22 45 39 18 41 40 68 73 76 72 75 66 58 52 47 40 36 31 26 21 39 44 52 42 39 36 24 15 17 15 17 16 18 25 23 19 20 17 6
55 46 34 39 25 13 26 37 26 44 48 54 59 61 65 66 57 50 47 39 34 32 27 18 36 45 53 46 41 35 23 18 13 13 14 13 14 22 27 9 2 5 6 6
73 67 61 31 20 16 16 29 30 47 68 67 59 61 60 61 55 49 40 33 32 30 24 30 47 54 45 41 40 27 21 24 18 16 15 10 24 23 5 6 7 7 6 5
38 50 41 40 33 11 21 30 60 57 74 65 63 58 52 49 51 46 36 36 40 35 28 54 54 42 39 38 36 26 20 19 10 9 8 15 11 4 10 16 12 6 11 13
52 32 33 36 32 39 36 44 31 48 67 63 60 58 56 53 47 40 37 32 25 26 57 51 42 38 35 34 33 32 22 16 12 4 2 9 25 8 11 11 9 10 12 9
61 47 34 27 46 66 64 67 28 56 73 69 64 57 50 48 47 43 39 36 31 51 47 39 37 35 33 27 28 26 20 12 11 7 3 23 12 5 5 11 10 8 13 11
63 40 30 27 41 69 68 58 37 69 65 60 55 49 45 43 44 43 44 45 46 43 39 36 33 29 27 23 23 27 19 12 18 9 22 24 14 5 6 7 9 11 12 14
42 37 35 26 30 44 52 37 45 68 66 63 54 50 50 45 43 47 47 47 44 40 36 36 39 32 26 16 19 24 13 7 27 31 26 16 9 8 9 7 8 8 9 10
40 32 39 33 35 35 49 35 48 65 71 57 55 56 51 47 47 50 52 51 46 41 34 32 33 29 23 21 15 10 6 28 34 33 22 10 6 8 8 7 5 4 7 11
46 54 38 49 41 22 36 54 44 55 66 58 50 48 51 50 50 53 45 45 41 32 29 30 32 30 20 18 13 28 33 25 23 16 10 6 4 7 12 4 7 8 5 6
36 37 45 52 36 27 49 50 52 59 54 53 55 54 51 51 53 60 54 42 39 38 27 27 32 31 22 17 18 27 35 25 16 8 5 5 7 9 6 11 11 8 4 8
38 41 51 57 57 60 79 105 61 57 59 57 49 44 44 52 50 48 44 41 40 34 33 39 27 27 27 29 37 32 22 12 6 6 6 9 11 13 8 9 9 3 5 13
45 38 43 62 91 87 86 92 54 61 58 48 43 42 41 47 56 55 47 40 36 44 43 30 28 23 29 33 32 22 16 9 6 7 11 9 14 14 9 5 3 6 14 21
35 40 57 58 65 79 85 81 71 74 64 56 48 46 49 51 50 48 51 42 38 37 35 40 31 37 39 34 27 20 12 7 8 12 14 15 18 14 8 0 9 17 18 16
43 41 45 55 75 85 84 76 80 78 67 62 63 59 57 56 51 44 41 37 40 44 41 42 41 41 35 28 24 18 13 12 14 15 16 13 8 2 5 10 11 13 14 17
Wind_Direction_850mb
308 269 202 205 202 167 155 162 151 198 195 217 202 165 177 179 171 172 172 179 184 187 190 189 189 190 194 199 195 194 201 179 177 185 187 189 196 191 200 254 298 314 333 333
315 314 226 201 205 177 156 141 131 142 188 187 203 122 150 177 168 173 174 182 180 186 189 189 190 189 194 196 194 199 200 189 187 192 195 205 206 198 223 231 272 284 321 297
296 326 304 239 190 187 168 178 145 152 209 162 170 152 158 176 180 175 180 177 184 191 192 191 191 193 194 194 195 200 188 199 196 196 206 203 229 224 262 244 255 279 304 271
286 321 268 268 282 178 192 184 161 125 146 156 169 167 159 185 181 184 176 180 184 190 192 193 191 192 192 194 196 197 185 170 171 186 199 219 243 236 279 250 275 289 50 86
177 265 288 306 26 357 161 228 175 157 166 122 143 137 121 179 186 193 190 191 192 192 194 189 189 191 192 192 196 190 186 182 187 194 214 218 229 257 265 188 179 316 320 316
186 150 256 240 351 358 358 255 199 147 157 151 159 136 228 170 178 179 184 188 190 190 188 186 189 192 192 193 193 185 187 185 193 204 205 207 256 230 167 159 204 297 314 317
176 237 287 347 322 325 88 244 323 222 169 164 173 189 165 169 174 180 184 185 185 183 183 186 187 190 190 191 189 181 189 190 200 215 197 190 163 156 150 137 306 309 316 327
218 228 269 3 338 335 268 322 314 287 173 172 175 161 162 170 171 176 176 175 178 176 178 182 185 190 190 187 176 179 182 192 208 199 201 214 242 236 194 294 305 313 322 315
183 218 239 249 259 272 314 324 306 295 207 181 164 160 163 165 166 169 170 171 173 175 174 175 182 192 188 175 181 185 185 192 185 172 181 204 244 227 268 284 294 302 313 321
256 254 250 276 281 279 280 326 320 271 190 170 158 161 162 163 164 166 168 169 172 175 175 174 186 196 181 185 186 192 183 181 186 196 224 243 261 252 263 292 301 306 307 305
260 295 300 308 285 273 291 315 323 219 185 169 165 164 164 162 163 167 168 168 174 179 183 188 198 184 184 187 189 179 185 185 194 210 228 243 268 283 297 316 315 312 313 308
244 281 272 289 291 272 235 346 234 189 184 168 166 166 164 161 167 168 168 169 173 179 186 192 203 204 177 175 173 185 185 178 187 203 237 281 297 306 319 317 342 342 347 337
280 301 287 277 268 267 222 209 186 168 189 162 166 163 164 162 168 169 168 171 176 178 184 189 213 181 174 166 170 172 175 187 207 244 249 277 304 320 318 339 343 338 346 15
288 292 268 266 254 247 225 235 210 186 184 176 170 166 164 162 164 171 171 169 169 177 179 192 173 169 162 166 173 174 180 186 210 222 244 285 304 321 328 324 290 61 105 2
276 279 260 263 269 275 233 196 159 188 185 168 170 170 167 163 166 171 167 169 173 174 179 169 162 159 164 174 173 176 199 212 222 245 237 290 329 333 49 141 133 137 115 65
265 298 263 248 255 260 177 152 167 181 171 166 171 171 169 165 164 164 168 173 174 174 175 157 155 164 170 177 177 191 197 191 218 246 236 310 350 155 121 147 151 105 74 101
275 249 250 241 215 173 173 160 176 181 169 171 173 171 166 162 162 164 168 166 166 169 158 155 157 165 168 177 188 188 195 213 242 277 248 353 161 133 103 148 148 126 95 83
278 287 243 252 206 181 171 200 219 195 176 172 168 166 161 167 165 168 161 154 154 155 159 155 152 165 175 186 193 200 209 236 295 268 215 170 168 130 94 140 141 100 104 76
263 254 240 243 224 204 202 203 201 188 175 170 167 165 166 166 167 167 163 159 160 167 165 156 161 169 182 199 200 204 222 284 328 171 174 177 163 141 140 147 127 95 79 67
246 240 223 201 171 171 170 161 179 188 178 173 165 161 161 163 168 167 169 169 170 169 164 158 176 183 184 195 193 204 238 316 148 149 165 175 167 157 151 146 125 106 89 55
221 196 176 163 164 159 197 204 177 181 174 172 168 165 164 165 165 168 170 170 172 171 165 173 187 191 194 175 185 216 224 151 172 171 170 177 180 166 151 137 122 103 66 38
206 191 195 189 164 92 170 181 194 181 171 168 168 164 164 163 166 170 172 172 165 163 173 194 199 198 174 164 131 144 153 155 154 158 161 162 162 162 138 124 147 121 64 29
207 206 191 175 165 154 169 162 177 175 169 171 171 170 169 164 167 170 169 173 165 169 174 176 165 175 171 142 128 149 172 170 161 163 168 119 118 134 117 99 135 95 84 4
202 163 172 175 162 170 166 163 165 180 178 173 170 170 165 163 169 172 166 167 172 175 172 156 144 153 155 161 161 157 157 153 145 147 126 113 133 144 124 117 128 124 336 339
165 152 155 162 170 170 166 175 169 179 174 167 165 170 167 168 169 171 178 166 163 159 159 164 168 176 160 161 164 159 147 136 136 141 136 142 147 151 132 114 72 341 327 330
138 151 160 166 170 173 175 174 180 176 168 162 163 168 168 171 172 169 169 168 168 178 189 177 167 153 153 163 170 178 168 153 146 143 135 125 120 123 130 60 327 330 340 347
114 133 159 166 171 172 176 175 170 165 165 160 159 164 170 174 172 165 161 164 168 163 162 157 156 156 155 161 173 174 172 158 155 146 129 120 121 99 329 348 17 23 12 6